Location: Blankensee
(53.5126°N, 14.3055°E)
Time: 17:33:29
(UTC+00:00)

Cosmos 1437 - Pass Details

Date: 08 August 2020
Orbit: 368 x 371 km, 81.2° (Epoch: 19 September)

Event Time Altitude Azimuth Distance (km) Brightness Sun altitude
Rises 00:42:39 0° 337° (NNW) 2,238 7.1 -17.6°
Reaches altitude 10° 00:44:50 10° 323° (NW) 1,381 5.7 -17.4°
Enters shadow 00:46:54 24° 281° (W) 836 4.1 -17.3°
